Regional Weather Roundup
Issued by NWS

Home | Current Version | Previous Version | Graphics & Text | Print | Product List | Glossary On
Versions: 1 2 3 4 5 6 7 8 9 10 11 12 13 14 15 16 17 18 19 20 21 22 23 24 25 26 27 28 29 30 31 32 33 34 35 36 37 38 39 40 41 42 43 44 45 46 47 48 49 50
000
ASUS43 KIND 021709
RWRIN

WEATHER ROUNDUP FOR INDIANA
NATIONAL WEATHER SERVICE INDIANAPOLIS IN
100 PM EDT SUN AUG 02 2015

NOTE: "FAIR" INDICATES FEW OR NO CLOUDS BELOW 12,000 FEET WITH NO
SIGNIFICANT WEATHER AND/OR OBSTRUCTIONS TO VISIBILITY.

* - STATION DOES NOT REPORT WEATHER SUCH AS PRECIPITATION OR FOG.

+ - STATION NOT QUALITY CONTROLLED BY THE NATIONAL WEATHER SERVICE.
    USE DATA WITH CAUTION...ESPECIALLY DEWPOINT AND RELATIVE
    HUMIDITY OBSERVATIONS.

INZ001>003-010>013-019-020-021800-
NORTHWEST INDIANA

CITY           SKY/WX    TMP DP  RH WIND       PRES   REMARKS
GARY /AIRPORT/ MOSUNNY   88  66  48 SW16G30   29.83F
KNOX *+        SUNNY     84  64  51 SW15G23   29.85F
LA PORTE +     SUNNY     88  69  53 SW18G24   29.86S
MICHIGAN CITY+ SUNNY     86  64  48 SW16G22   29.83F
MONTICELLO +   SUNNY     84  72  65 SW13      29.89F
RENSSELAER +   SUNNY     86  73  66 SW15G22   29.88F
VALPARAISO     SUNNY     88  68  51 SW18G30   29.85F

$$

LMZ046-743>745-021800-
SOUTHERN LAKE MICHIGAN

STATION/POSITION TIME  TEMP    WIND        PRES    WAVE
                       AIR SEA DIR/SP/G            HT
                 (UTC) (F)     (DEG/KT/KT) (MB)    (FT)
BURNS HARBOR     1624   84     210/ 19/ 25 1010.2F
MICHIGAN CITY    1600   81     190/ 18/ 23   N/A
5NW MICH CITY    1700   79 74  240/ 12/ 16   N/A     2

$$

INZ004-005-014>016-021>024-021800-
NORTH CENTRAL INDIANA

CITY           SKY/WX    TMP DP  RH WIND       PRES   REMARKS
ELKHART        SUNNY     86  66  51 SW15G21   29.86F
GOSHEN         SUNNY     85  70  60 SW16G23   29.86F
LOGANSPORT +   SUNNY     84  63  48 SW14      29.91F
PERU/GRISSOM   SUNNY     85  69  57 SW16      29.90F
ROCHESTER +    SUNNY     86  72  62 SW10G17   29.89F
SOUTH BEND     SUNNY     88  67  49 SW17G24   29.85F
WARSAW +       MOSUNNY   84  70  61 SW10G18   29.89F

$$

INZ006>009-017-018-025>027-021800-
NORTHEAST INDIANA

CITY           SKY/WX    TMP DP  RH WIND       PRES   REMARKS
ANGOLA *+      SUNNY     86  81  84 SW14      29.87F HX 102
AUBURN +       SUNNY     82  64  54 SW8G16    29.90F
FORT WAYNE     MOSUNNY   84  67  56 SW17      29.92F
HUNTINGTON +   SUNNY     83  67  57 SW10      29.91F

$$

INZ028-029-035-036-043>045-051>053-021800-
WEST CENTRAL INDIANA

CITY           SKY/WX    TMP DP  RH WIND       PRES   REMARKS
CRAWFORDSVL +  SUNNY     82  65  57 SW12G17     N/A
GREENCASTLE +  SUNNY     81  64  57 CALM      29.96F
LAFAYETTE      SUNNY     84  70  62 SW12G22   29.90F
TERRE HAUTE    SUNNY     87  69  54 S14       29.95F

$$

INZ030>032-037>040-046>048-054>057-064-065-021800-
CENTRAL INDIANA

CITY           SKY/WX    TMP DP  RH WIND       PRES   REMARKS
COLUMBUS       SUNNY     86  50  28 SW12G17   29.97F
FRANKFORT +    SUNNY     84  72  67 S10       29.95F
GREENWOOD *+   SUNNY     82  63  51 SW10      29.97F
INDIANAPOLIS   MOSUNNY   84  66  54 S13       29.95S
-EAGLE CREEK   SUNNY     83  67  58 W8        29.95F
KOKOMO *+      SUNNY     84  68  58 SW17      29.93F
MARION +       SUNNY     83  67  58 SW10      29.94F HAZE
MT COMFORT *+  SUNNY     84  61  45 SW9       29.96F
SHELBYVILLE    SUNNY     85  67  54 SW9       29.96F
ZIONSVILLE +   SUNNY     84  67  58 SW9G16    29.96S

$$

INZ033-034-041-042-049-050-058-059-021800-
EAST CENTRAL INDIANA

CITY           SKY/WX    TMP DP  RH WIND       PRES   REMARKS
MUNCIE         SUNNY     82  65  56 SW15      29.95F

$$

INZ060-061-067>069-081>083-085>088-021800-
SOUTHWEST INDIANA

CITY           SKY/WX    TMP DP  RH WIND       PRES   REMARKS
EVANSVILLE     SUNNY     87  59  38 SW10      29.98F
HUNTINGBURG *+ SUNNY     84  64  51 SW8       29.99S
WASHINGTON +   SUNNY     86  56  35 SW8       29.97S

$$

INZ062-063-066-070>080-084-089>092-021800-
SOUTH CENTRAL AND SOUTHEAST INDIANA

CITY           SKY/WX    TMP DP  RH WIND       PRES   REMARKS
BLOOMINGTON    SUNNY     84  64  50 W10       29.97F
MADISON *+     SUNNY     82  59  44 S8        30.01F
NORTH VERNON + SUNNY     86  57  37 SW9       29.99F
SEYMOUR +      SUNNY     86  63  45 S7        29.97F

$$



USA.gov is the U.S. government's official web portal to all federal, state and local government web resources and services.